CZ-3B DEB, 40179

Orbit data source: Space-Track

CZ-3B DEB, 40179 is space debris in HEO originally from a launch on Mon, 19 Dec 2011 UTC launched from the Xichang Space Center, China (XSC). Debris objects in space refer to the collection of defunct objects orbiting the Earth. Examples of debris include non-operational satellites, rocket bodies, and fragments generated from explosions, collisions, or faulty payload assembly.

Loading next visibility...
Identifier
40179, 2011-077C
Orbit
HEO
Country
Flag of CNCN / PRC
Related business
Manufacturer
CALT
Mission
Spacecraft
Bus & Motor
Unknown
Mass
Unknown
Launch date (UTC)
2011-12-19 (14 years ago)
Launch vehicle
Unknown
Launch site
Xichang Space Center, China (XSC)
Object type
Payload
Rocket body
Debris
Shape & HBR
Unknown shape, 0.3 m
Radar Cross Section
Medium (>0.1 m² and <1 m²)

Expand to show TLE details & history
Last TLE update: 4 days ago

TLE from 4 days ago
0 CZ-3B DEB
1 40179U 11077C   25337.25881807 -.00000251  00000-0  31651-2 0  9993
2 40179  26.3797 351.7490 7418849  57.8173 353.4854  1.91890810 84346
Epoch: 2025-12-03T06:12Z
TLE epoch observation values (Epoch: 2025-12-03T06:12:41.881Z)
Latitude
0.00009°
Longitude
-173.77604°
Altitude
2,394.789 km
Speed
8.735 km/s
True Right ascension
23h 26m 55s
True Declination
0° 00' 00"
Sunlit
Object was in daylight at epoch
Visualization orbit readout
Latitude
Unknown
Longitude
Unknown
Altitude
Unknown
Speed
Unknown
Apparent Right ascension
Unknown
Apparent Declination
Unknown
Sunlit
N/A
Visualization observer readout
Local Sidereal Time
13:30:39
Azimuth
Unknown
Elevation
Unknown
Doppler factor
Unknown
Orbital elements
Apogee altitude
41,277.227 km
Perigee altitude
683.506 km
Semi-major axis
27,358.504 km
Eccentricity
0.74188
Inclination
26.3797°
RAAN
351.749°
Arg. of periapsis
57.8173°
True anomaly
303.46728°
Mean anomaly
353.4854°
Eccentric anomaly
336.61217°
Mean motion
0.47963 °/min
Orbital period
750.58 mins
BSTAR
0.0031651
Loading maneuver chart data...
Computing Atmospheric mass density...
Loading historical data...
Loading historical data...
Loading historical data...
Loading historical data...
Loading historical data...
Loading historical data...
Loading historical data...

Documentation

Showing up to 5 results
|